Simultaneous Nadir Overpasses (SNOs) Predictions

Prediction of SNOs between AQUA and METOP-C Satellite Orbit:

Table of predicted SNOs for the next 14.0 days since TLE Epoch: 11/11/2023
Index Date (AQUA) Time (AQUA) Lat,Lon (AQUA) SZA (AQUA ) Date (METOP-C) Time (METOP-C) Lat,Lon (METOP-C) SZA (METOP-C ) Distance(km) Time Diff (sec)
1 11/11/2023 04:24:17 74.79, 110.81 92.05 11/11/2023 04:23:07 74.82, 110.75 92.07 3.32 70
2 11/11/2023 05:13:42 -74.91, -81.83 87.84 11/11/2023 05:13:48 -74.90, -81.71 87.84 3.74 6
3 11/11/2023 06:03:11 75.13, 85.21 92.41 11/11/2023 06:04:21 75.18, 86.46 92.46 35.89 70
4 11/13/2023 21:26:21 -74.83, 35.23 87.19 11/13/2023 21:25:31 -74.83, 35.18 87.19 1.43 50
5 11/13/2023 22:15:47 74.92,-157.34 92.91 11/13/2023 22:16:08 74.92,-157.21 92.92 3.80 21
6 11/16/2023 14:28:23 74.83, -40.23 93.51 11/16/2023 14:27:50 74.84, -40.36 93.52 3.86 33
7 11/16/2023 15:17:48 -74.93, 127.15 86.38 11/16/2023 15:18:31 -74.92, 127.19 86.39 1.71 43
8 11/19/2023 06:40:49 74.26, 78.07 93.59 11/19/2023 06:39:44 74.22, 75.06 93.54 90.96 65
9 11/19/2023 07:30:24 -74.87,-115.80 85.80 11/19/2023 07:30:13 -74.88,-115.86 85.79 1.88 11
10 11/19/2023 08:19:49 74.91, 51.73 94.26 11/19/2023 08:20:51 74.93, 51.62 94.27 3.46 62
11 11/21/2023 23:42:59 -74.83, 1.18 85.24 11/21/2023 23:41:55 -74.82, 1.06 85.25 3.79 64
12 11/22/2023 00:32:25 74.93, 168.57 94.88 11/22/2023 00:32:32 74.92, 168.68 94.87 3.70 7
13 11/22/2023 01:21:57 -75.38, -24.99 84.67 11/22/2023 01:23:04 -75.42, -22.53 84.62 69.16 67
14 11/24/2023 16:44:58 74.88, -74.40 95.38 11/24/2023 16:44:14 74.85, -74.42 95.36 3.09 44
15 11/24/2023 17:34:22 -74.92, 93.15 84.57 11/24/2023 17:34:55 -74.92, 93.10 84.57 1.46 33



Historial Predications of SNOs between AQUA and METOP-C
